欧洲卫星公司-21星 (SES-21)

导读

SES 21是由欧洲卫星公司SES主导研发的通信卫星,于2022年10月4日发射入轨,定位于地球同步轨道,属于SES全球通信卫星星座组网的一部分。该卫星主要承担接替老旧卫星、拓展北美地区通信广播业务的任务,为当地提供稳定的卫星电视传输、宽带网络接入与数据通信服务,进一步强化了SES在北美市场的通信服务覆盖能力与可靠性,设计服役寿命超过15年。

基本信息
目录编号:
53961
目录名称:
SES 21
国际标识:
2022-123B
轨道中心:
EARTH
卫星名称:
欧洲卫星公司-21星
卫星全名:
欧洲卫星公司-21星 (SES-21)
卫星状态:
在轨 (已飞行1347 天)
发射日期:
2022-10-04 UTC
国别 :
(SES)
星等 :
--
轨道信息
数据来源 国际轨道数据 AOE轨道数据
星历时间 2026-06-11T20:37:19+0800
1天前
查看轨道信息
2026-06-10T18:00:00+0800
2天前
查看轨道信息
半长轴 42165.261km 42164.56km
偏心率 0.0000921 0.0000838
轨道倾角 0.026° 0.030°
近地点辐角 47.672° 44.888°
升交点赤经 32.542° 41.162°
平近点角 237.974° 191.718°
近地点 35783.24km 35782.889km
远地点 35791.008km 35789.957km
周期 1436.124分钟 1436.088分钟
每日圈数 1.002699 1.002724
详细信息
卫星平台:
BSS-702SP
平衡模式:
三轴稳定
覆盖范围:
大西洋
运营商:
欧洲卫星公司
运营商所在国:
卢森堡
制造商(研发单位):
波音公司
制造商所在国:
美国
使用方式:
暂无
卫星简介
欧洲卫星公司:成立于1985年,总部设在卢森堡。该公司通过运营ASTRA、AMERICOM及 NEW SKIES卫星系统为客户提供电视、广播和多媒体直接到户的信息传送服务,是世界第二大卫星运营商。该卫星仍在工作。
2D轨道图
3D轨道图
轨道高度分析图
轨道倾角分析图
轨道综合分析图
查看轨道综合分析图